User: anonymous   Login
Location: Theodore Roosevelt Nature Center
(40.5943°N, 73.5104°W)
Time: 13:26:09
(UTC-05:00)
Language:

Oscar 11 - Orbit

View from above orbital plane
View from above orbital plane
View from above satellite
View from above satellite

Ground track
Ground track

The orbit data is extracted from the following two-line orbital elements,

1 14781U 84021B   19348.75898298 +.00000076 +00000-0 +15356-4 0  9994
2 14781 097.5992 004.8896 0010010 091.7314 268.5047 14.83127551904301
Epoch (UTC): 14 December 2019 18:12:56
Eccentricity: 0.0010010
inclination: 97.5992°
perigee height: 612 km
apogee height: 626 km
right ascension of ascending node: 4.8896°
argument of perigee: 91.7314°
revolutions per day: 14.83127551
mean anomaly at epoch: 268.5047°
orbit number at epoch: 90430

The dashed part of the orbit path shows where the satellite is in the earth's shadow,  

DLR